Volver al catálogo

FENGYUN 1C DEB

ActivoSSO
NORAD 30152·DEBRIS·🇨🇳 China

Lanzado May 10, 1999 desde Taiyuan Satellite Launch Center

Loading…

Próximos Pases (próximas 24 horas)

TLE

ActualizadoSource: Space-Track

Época: Sep 14, 2026, 00:50 UTC

1 30152U 99025TH  26257.03484591  .00002145  00000-0  13696-2 0  9991
2 30152  99.0785 116.7581 0164848  49.4710 312.0679 13.98127415992230

Sigue FENGYUN 1C DEB en tiempo real con AllMySat

Download on the App Store